Weather in Oktyabrsky

Russia / Sverdlovsk Oblast     56°39′17″N   61°27′20″E
temp.,
°C
wind,
m/s
gust,
m/s
humid.,
%
clouds,
%
prec.,
mm/h
press.,
hPa
HPBL,
m
16 may, sun
sun1623:00+20nw51460100 0.8 1019459
02:00+18w356315 0.0 101992
05:00+17wsw3137396 0.0 1019247
08:00+23w5125295 0.0 1019393
11:00+29w59305 0.0 10191404
14:00+31w69186 0.0 10183321
17:00+31w681962 0.0 10183924
20:00+25w363511 0.0 1017116
17 may, mon
mon1723:00+20wsw310473 0.0 1018178
02:00+18wsw310535 0.0 1018179
05:00+17wsw311570 0.0 1018189
08:00+23wsw5114212 0.0 1018448
11:00+28wsw712280 0.1 10172985
14:00+30w7111998 0.0 10163419
17:00+30w6102241 0.0 10153902
20:00+26wnw511345 0.0 1015769
18 may, tue
tue1823:00+18s016622 0.9 101513
02:00+17w3873100 0.5 1015170
05:00+16w411760 0.6 1015261
08:00+20nw59590 0.0 1015785
11:00+22nw61038100 0.0 10161881
14:00+24nw693349 0.0 10162437
17:00+21n784460 0.0 10171803
20:00+14n6106826 0.0 1020756
19 may, wed
wed1923:00+12nne6968100 0.0 1023987
02:00+11nne4871100 0.0 1024926
05:00+11nne466286 0.0 10251103
08:00+12ne46604 0.0 1027873
11:00+16ene34395 0.0 10261191
14:00+20e233176 0.0 10251485
17:00+21ese2229100 0.0 10251651
20:00+17s2445100 0.0 102471
20 may, thu
thu2023:00+13s22515 0.0 102519
02:00+11ssw22575 0.0 102522
05:00+10ssw25625 0.0 102681
08:00+16sw35455 0.0 1025333
11:00+22wsw33305 0.0 10241204
14:00+25sw23230 0.0 10221785
17:00+26wsw24220 0.0 10212035
20:00+22sw22370 0.0 102029